[[{"header":{"parameterUnit":"m.s-1","parameterCategory":1,"la1":30.2991,"la2":30.254,"lo1":-89.0895,"lo2":-89.0444,"dy":0.0017,"dx":0.0017,"nx":28,"ny":28,"refTime":"2023-09-17T09:00:00:Z","depth":0,"parameterNumber":2,"parameterNumberName":"U-component_of_WINDS"},"data":[0,0,0,0,0,0,0,0,0,0,0,0,0,0,0,0,0,0,0,0,0,0,0,0,0,0,0,0,0,0,0,0,0,0,0,0,0,0,0,0,0,0,0,0,0,0,0,0,0,0,0,0,0,0,0,0,0,0,0.0482,0.0482,0,0.0484,0.0484,0.0484,0.0491,0.0491,0.0491,0.0491,0.0495,0.0495,0.0495,0,0,0,0,0,0,0,0,0,0,0,0,0,0.0484,0.0484,0.0482,0.0482,0.0482,0.0484,0.0484,0.0484,0.0491,0.0491,0.0491,0.0491,0.0495,0.0495,0.0495,0,0,0,0,0,0,0,0,0,0,0,0,0,0.0485,0.0484,0.0482,0.0485,0.0486,0.0484,0.0484,0.0484,0.0491,0.0491,0.0491,0.0492,0.0495,0.0495,0.0495,0.049,0,0,0.0494,0.0494,0,0,0,0,0,0,0,0,0.0485,0.0485,0.0485,0.0485,0.0485,0.0487,0.0486,0.0486,0.0491,0.0489,0.0491,0.0492,0.0492,0.0492,0.0492,0.049,0.049,0.0494,0.0494,0.0494,0.0494,0,0,0,0,0,0,0,0.0485,0.0485,0.0483,0.0485,0.0485,0.0487,0.0488,0.0486,0.0489,0.0489,0.049,0.049,0.0492,0.0492,0.0492,0.049,0.0494,0.0494,0.0494,0.0494,0.0486,0.0486,0,0,0,0,0,0,0.0484,0.0484,0.0483,0.0483,0.0486,0.0487,0.0488,0.0487,0.0489,0.049,0.049,0.049,0.0492,0.0493,0.0493,0.0488,0.0494,0.0494,0.0494,0.0487,0.0486,0.0486,0,0,0,0,0,0,0.0484,0.0484,0.0482,0.0484,0.0484,0.0487,0.0486,0.0487,0.0487,0.049,0.049,0.0489,0.0493,0.0493,0.0491,0.0489,0.0494,0.0494,0.0487,0.0487,0.0486,0.0479,0,0,0,0,0,0,0.0484,0.0484,0.0481,0.0484,0.0484,0.048,0.0486,0.0486,0.0486,0.0487,0.0489,0.049,0.0493,0.0491,0.0491,0.0489,0.0494,0.0487,0.0487,0.0486,0.048,0.0479,0.0478,0,0,0,0,0,0.0484,0.0479,0.0481,0.0481,0.0481,0.048,0.048,0.0483,0.0486,0.0484,0.0487,0.049,0.0489,0.0491,0.0491,0.0488,0.0487,0.0487,0.0486,0.048,0.0479,0.0478,0,0,0,0,0,0,0.0476,0.0479,0.0482,0.0477,0.0478,0.0481,0.0479,0.0482,0.0482,0.0483,0.0487,0.0487,0.0485,0.0487,0.0489,0.0485,0.0489,0.0488,0.0484,0.0483,0.0482,0.0482,0.0494,0,0,0,0,0,0.0474,0.0472,0.0475,0.0471,0.0472,0.0475,0.0475,0.0477,0.0479,0.0479,0.0481,0.0483,0.0483,0.0483,0.0484,0.048,0.0482,0.0479,0.0478,0.0477,0.0477,0.0477,0.0476,0.0485,0.0485,0.0485,0,0,0.0469,0.047,0.0469,0.047,0.0471,0.047,0.0475,0.0474,0.0474,0.0479,0.0478,0.048,0.0482,0.048,0.0479,0.0481,0.0475,0.0477,0.0476,0.0476,0.0476,0.0475,0.0475,0.0485,0.0485,0.0485,0,0,0.046,0.046,0.0457,0.0459,0.0461,0.0463,0.0463,0.0466,0.0467,0.0466,0.0471,0.0471,0.0471,0.0473,0.0473,0.0467,0.0471,0.0467,0.0463,0.0463,0.0462,0.0461,0.046,0.0459,0.0467,0.0467,0.0467,0,0.0453,0.0452,0.0456,0.0454,0.0455,0.046,0.0458,0.046,0.0462,0.0462,0.0464,0.0466,0.0467,0.0466,0.0465,0.0465,0.0466,0.0467,0.0462,0.0461,0.0461,0.0459,0.0459,0.0467,0.0467,0.0467,0.0467,0,0.0444,0.0443,0.0441,0.0443,0.0444,0.0442,0.0446,0.0447,0.045,0.0453,0.0452,0.0455,0.0456,0.0457,0.0459,0.0456,0.0458,0.0461,0.0464,0.0459,0.0458,0.0458,0.0466,0.0466,0.0466,0.0466,0,0,0.0429,0.0434,0.0433,0.0435,0.0439,0.0438,0.0438,0.0439,0.044,0.0442,0.0442,0.0443,0.0446,0.0447,0.045,0.045,0.0446,0.0453,0.0454,0.0452,0.0445,0.0442,0.0442,0.0449,0.0449,0.0449,0.0445,0,0.042,0.0419,0.0423,0.0421,0.0421,0.0427,0.0427,0.0429,0.0433,0.0434,0.0437,0.0438,0.0442,0.0443,0.0443,0.0447,0.0445,0.0447,0.045,0.045,0.0449,0.0441,0.0438,0.0434,0.0444,0.0444,0.0444,0,0.041,0.0412,0.0409,0.0415,0.0415,0.0414,0.0417,0.0418,0.0422,0.0424,0.0426,0.043,0.0431,0.0435,0.0437,0.0438,0.044,0.0442,0.0442,0.0442,0.0446,0.0441,0.0433,0.0432,0.0443,0.0443,0.0443,0,0.04,0.0401,0.0401,0.0402,0.0408,0.0407,0.041,0.0414,0.0415,0.0418,0.0419,0.0422,0.0424,0.0426,0.0432,0.0434,0.0433,0.0437,0.0436,0.0436,0.0435,0.0435,0.0427,0.0436,0.0436,0.0436,0.0436,0,0.039,0.0388,0.0396,0.0396,0.0395,0.0401,0.04,0.0403,0.0407,0.0408,0.0414,0.0415,0.0422,0.0424,0.0428,0.043,0.043,0.0433,0.0434,0.0432,0.0432,0.0433,0.0433,0.0436,0.0436,0.0436,0.0436,0,0.0377,0.0383,0.0382,0.0389,0.039,0.0389,0.0395,0.0395,0.0399,0.0401,0.0401,0.0408,0.0411,0.0417,0.0421,0.0424,0.0425,0.0427,0.0423,0.0424,0.0422,0.0423,0.0415,0.0414,0.0423,0.0423,0.0423,0,0.0371,0.037,0.0376,0.0378,0.038,0.0381,0.0383,0.039,0.0391,0.0397,0.0397,0.04,0.0403,0.0408,0.0413,0.0417,0.042,0.0417,0.042,0.0419,0.042,0.042,0.0421,0.0416,0.0416,0.0415,0.0415,0,0.0359,0.0362,0.0364,0.0367,0.0369,0.0372,0.0376,0.0377,0.0384,0.0386,0.0389,0.0392,0.0397,0.0401,0.0406,0.0409,0.0414,0.0414,0.0414,0.0412,0.0411,0.0412,0.0421,0.0414,0.0414,0.0415,0.0415,0.0415,0.0349,0.0349,0.0354,0.0357,0.0361,0.0364,0.0365,0.037,0.0373,0.0377,0.0381,0.0384,0.039,0.0397,0.0401,0.0404,0.0406,0.0406,0.0406,0.0406,0.0405,0.0411,0.0405,0.0405,0.0405,0.0405,0.0405,0,0.0338,0.0342,0.0344,0.0349,0.0352,0.0357,0.0361,0.0363,0.0366,0.037,0.0374,0.0378,0.0382,0.0389,0.0394,0.0395,0.0398,0.0396,0.0396,0.0397,0.0403,0.0402,0.0394,0.0394,0.0394,0.0394,0.0394,0.0394,0.0332,0.0333,0.0337,0.034,0.0345,0.0348,0.035,0.0354,0.0358,0.0363,0.0366,0.0371,0.0376,0.0382,0.0387,0.0389,0.039,0.0388,0.0391,0.0396,0.0397,0.0398,0.0397,0.0389,0.0389,0.0385,0.0385,0.0385]},{"header":{"parameterUnit":"m.s-1","parameterCategory":1,"la1":30.2991,"la2":30.254,"lo1":-89.0895,"lo2":-89.0444,"dy":0.0017,"dx":0.0017,"nx":28,"ny":28,"refTime":"2023-09-17T09:00:00:Z","depth":0,"parameterNumber":3,"parameterNumberName":"V-component_of_WINDS"},"data":[0,0,0,0,0,0,0,0,0,0,0,0,0,0,0,0,0,0,0,0,0,0,0,0,0,0,0,0,0,0,0,0,0,0,0,0,0,0,0,0,0,0,0,0,0,0,0,0,0,0,0,0,0,0,0,0,0,0,-3.2426,-3.2426,0,-3.2384,-3.2384,-3.2383,-3.2402,-3.2403,-3.2404,-3.2405,-3.2356,-3.2353,-3.2351,0,0,0,0,0,0,0,0,0,0,0,0,0,-3.2519,-3.2517,-3.2426,-3.2426,-3.2425,-3.2384,-3.2384,-3.2383,-3.2401,-3.2403,-3.2404,-3.2405,-3.2356,-3.2354,-3.2351,0,0,0,0,0,0,0,0,0,0,0,0,0,-3.2478,-3.2517,-3.2426,-3.243,-3.243,-3.2384,-3.2383,-3.2383,-3.2401,-3.2403,-3.2404,-3.2406,-3.2357,-3.2354,-3.235,-3.2298,0,0,-3.234,-3.2338,0,0,0,0,0,0,0,0,-3.248,-3.2474,-3.243,-3.2429,-3.2429,-3.24,-3.2398,-3.2354,-3.2401,-3.2412,-3.2405,-3.2407,-3.2369,-3.2364,-3.2353,-3.2295,-3.2293,-3.234,-3.2338,-3.2336,-3.2335,0,0,0,0,0,0,0,-3.2483,-3.2476,-3.2409,-3.2429,-3.2429,-3.2432,-3.2428,-3.239,-3.2382,-3.2411,-3.2412,-3.2407,-3.2369,-3.2356,-3.2352,-3.2292,-3.234,-3.2337,-3.2335,-3.2333,-3.219,-3.2189,0,0,0,0,0,0,-3.2486,-3.2479,-3.2411,-3.2408,-3.2459,-3.2429,-3.2424,-3.2408,-3.2382,-3.238,-3.2406,-3.2408,-3.2361,-3.2356,-3.235,-3.2287,-3.2336,-3.2333,-3.2331,-3.2192,-3.219,-3.2188,0,0,0,0,0,0,-3.2488,-3.248,-3.2412,-3.2444,-3.2435,-3.2426,-3.2407,-3.2406,-3.2393,-3.2379,-3.2377,-3.2395,-3.2362,-3.2355,-3.2311,-3.2285,-3.2331,-3.2328,-3.2194,-3.2191,-3.2189,-3.216,0,0,0,0,0,0,-3.2491,-3.2481,-3.2461,-3.2443,-3.2434,-3.2375,-3.2405,-3.2404,-3.2388,-3.2391,-3.2367,-3.2365,-3.2363,-3.2316,-3.2308,-3.2281,-3.2326,-3.2196,-3.2193,-3.219,-3.2163,-3.2156,-3.2151,0,0,0,0,0,-3.2494,-3.2453,-3.246,-3.2452,-3.241,-3.2374,-3.2368,-3.2368,-3.2386,-3.2366,-3.2357,-3.2366,-3.229,-3.2312,-3.2302,-3.2274,-3.2198,-3.2194,-3.219,-3.2165,-3.2158,-3.2151,0,0,0,0,0,0,-3.2466,-3.2451,-3.2458,-3.2411,-3.2394,-3.2377,-3.2351,-3.236,-3.2335,-3.2339,-3.2338,-3.2333,-3.2287,-3.2277,-3.2301,-3.2222,-3.2246,-3.224,-3.2231,-3.2223,-3.2217,-3.222,-3.2323,0,0,0,0,0,-3.2455,-3.2429,-3.2416,-3.2375,-3.2367,-3.2361,-3.2345,-3.2347,-3.2328,-3.2321,-3.2308,-3.2288,-3.226,-3.2241,-3.2214,-3.2162,-3.2157,-3.2138,-3.2132,-3.2128,-3.2122,-3.2094,-3.2085,-3.2175,-3.2175,-3.2175,0,0,-3.243,-3.2419,-3.2402,-3.2369,-3.2356,-3.2328,-3.2354,-3.2323,-3.2302,-3.2315,-3.2274,-3.2264,-3.2242,-3.2194,-3.2172,-3.2183,-3.2096,-3.2123,-3.2119,-3.2116,-3.2089,-3.208,-3.2073,-3.2172,-3.2173,-3.2173,0,0,-3.2371,-3.236,-3.2325,-3.2313,-3.2294,-3.229,-3.2282,-3.2265,-3.2259,-3.2218,-3.2228,-3.2202,-3.2154,-3.2138,-3.2123,-3.2061,-3.2068,-3.2052,-3.202,-3.1992,-3.1985,-3.1979,-3.1956,-3.1948,-3.2047,-3.2047,-3.2046,0,-3.2342,-3.2302,-3.2306,-3.2274,-3.226,-3.2274,-3.2238,-3.2225,-3.2197,-3.2186,-3.22,-3.214,-3.2126,-3.2075,-3.206,-3.2048,-3.2038,-3.2054,-3.1986,-3.198,-3.1974,-3.1953,-3.1944,-3.2045,-3.2045,-3.2045,-3.2045,0,-3.2267,-3.2239,-3.2213,-3.2189,-3.2171,-3.2138,-3.2136,-3.2117,-3.2121,-3.2116,-3.2074,-3.2058,-3.2029,-3.2017,-3.202,-3.1966,-3.1974,-3.1987,-3.2011,-3.1964,-3.1943,-3.1935,-3.2042,-3.2043,-3.2043,-3.2044,0,0,-3.2187,-3.2167,-3.2158,-3.2147,-3.2128,-3.2106,-3.2073,-3.2047,-3.2031,-3.2012,-3.1984,-3.1944,-3.1956,-3.194,-3.1941,-3.1917,-3.1868,-3.1933,-3.1932,-3.1921,-3.1809,-3.1798,-3.1789,-3.1874,-3.1873,-3.1871,-3.181,0,-3.2126,-3.207,-3.2074,-3.2021,-3.1995,-3.2009,-3.1981,-3.1965,-3.196,-3.1936,-3.193,-3.1901,-3.192,-3.1911,-3.1888,-3.1879,-3.1846,-3.1884,-3.1846,-3.1845,-3.1851,-3.1778,-3.1766,-3.1709,-3.1802,-3.1801,-3.18,0,-3.2047,-3.2028,-3.1973,-3.196,-3.1949,-3.1923,-3.19,-3.1878,-3.1861,-3.1859,-3.1842,-3.1847,-3.1813,-3.1839,-3.1792,-3.1818,-3.1803,-3.1796,-3.1794,-3.179,-3.1819,-3.177,-3.1691,-3.1682,-3.1788,-3.1789,-3.1789,0,-3.1993,-3.1954,-3.1917,-3.1907,-3.1891,-3.1873,-3.1864,-3.1849,-3.1834,-3.1813,-3.1803,-3.1778,-3.1763,-3.1743,-3.1742,-3.1761,-3.1694,-3.172,-3.169,-3.169,-3.1673,-3.1674,-3.159,-3.1666,-3.1666,-3.1666,-3.1666,0,-3.1924,-3.189,-3.1893,-3.1869,-3.1831,-3.1836,-3.1798,-3.1791,-3.1778,-3.1753,-3.1763,-3.1739,-3.1739,-3.1714,-3.1712,-3.1673,-3.1666,-3.1663,-3.1663,-3.1661,-3.1662,-3.165,-3.1654,-3.1664,-3.1664,-3.1665,-3.1665,0,-3.1857,-3.1858,-3.1818,-3.1807,-3.1803,-3.1776,-3.1765,-3.1743,-3.174,-3.1708,-3.17,-3.1695,-3.1666,-3.1663,-3.1629,-3.1628,-3.158,-3.1585,-3.1587,-3.1587,-3.1557,-3.156,-3.1461,-3.1449,-3.1534,-3.1533,-3.1532,0,-3.1813,-3.1787,-3.1774,-3.1759,-3.1751,-3.1726,-3.1712,-3.1715,-3.1699,-3.1679,-3.1658,-3.1632,-3.161,-3.1563,-3.1555,-3.1529,-3.1532,-3.15,-3.1528,-3.1528,-3.1531,-3.1532,-3.153,-3.1494,-3.1493,-3.1492,-3.1492,0,-3.1733,-3.1736,-3.1715,-3.1694,-3.1677,-3.166,-3.1644,-3.1631,-3.1633,-3.1614,-3.1586,-3.157,-3.1537,-3.1509,-3.1485,-3.1475,-3.1483,-3.1483,-3.1475,-3.1472,-3.1474,-3.1473,-3.1571,-3.1485,-3.1485,-3.1486,-3.1486,-3.1487,-3.1676,-3.1654,-3.1642,-3.1619,-3.1608,-3.1594,-3.1573,-3.1568,-3.1546,-3.1521,-3.1524,-3.1493,-3.1477,-3.1445,-3.1434,-3.1409,-3.1419,-3.1407,-3.1404,-3.1401,-3.1398,-3.148,-3.1404,-3.1405,-3.1405,-3.1405,-3.1405,0,-3.1596,-3.159,-3.1569,-3.1548,-3.153,-3.1543,-3.1527,-3.151,-3.1483,-3.1469,-3.1449,-3.1417,-3.1391,-3.1382,-3.1356,-3.1338,-3.1341,-3.1331,-3.1332,-3.1329,-3.139,-3.1399,-3.1329,-3.1329,-3.1329,-3.1329,-3.1329,-3.1329,-3.1553,-3.1517,-3.1518,-3.1477,-3.1471,-3.1443,-3.1432,-3.1419,-3.1408,-3.1373,-3.1353,-3.1348,-3.1335,-3.131,-3.1286,-3.1284,-3.1274,-3.1262,-3.1261,-3.1317,-3.1325,-3.1332,-3.1341,-3.126,-3.126,-3.1203,-3.1202,-3.1202]}]]